THORAD DELTA 1 DEB, 9989

Orbit data source: Space-Track

THORAD DELTA 1 DEB, 9989 is space debris in LEO originally from a launch on Fri, 15 Nov 1974 UTC launched from the Air Force Western Test Range (AFWTR). Debris objects in space refer to the collection of defunct objects orbiting the Earth. Examples of debris include non-operational satellites, rocket bodies, and fragments generated from explosions, collisions, or faulty payload assembly.

Loading next visibility...
Identifier
9989, 1974-089EG
Orbit
LEO
Country
Flag of USUS
Related business
Manufacturer
Unknown
Mission
Spacecraft
Bus & Motor
Unknown
Mass
Unknown
Launch date (UTC)
1974-11-15 (51 years ago)
Launch vehicle
Unknown
Launch site
Air Force Western Test Range (AFWTR)
Object type
Payload
Rocket body
Debris
Shape & HBR
Unknown shape, 0.1 m
Radar Cross Section
Small (<0.1 m²)

Expand to show TLE details & history
Last TLE update: 9 hours ago

TLE from 9 hours ago
0 THORAD DELTA 1 DEB
1  9989U 74089EG  25304.66558551  .00003041  00000-0  19592-1 0  9993
2  9989 103.0315 196.9867 0177211  44.1689 344.8120 12.48447389272976
Epoch: 2025-10-31T15:58Z
TLE epoch observation values (Epoch: 2025-10-31T15:58:26.588Z)
Latitude
27.68331°
Longitude
-89.77024°
Altitude
1,339.96 km
Speed
7.251 km/s
True Right ascension
12h 40m 11s
True Declination
27° 33' 10"
Sunlit
Object was in daylight at epoch
Visualization orbit readout
Latitude
Unknown
Longitude
Unknown
Altitude
Unknown
Speed
Unknown
Apparent Right ascension
Unknown
Apparent Declination
Unknown
Sunlit
N/A
Visualization observer readout
Local Sidereal Time
20:10:54
Azimuth
Unknown
Elevation
Unknown
Doppler factor
Unknown
Orbital elements
Apogee altitude
1,607.676 km
Perigee altitude
1,329.569 km
Semi-major axis
7,846.759 km
Eccentricity
0.01772
Inclination
103.0315°
RAAN
196.9867°
Arg. of periapsis
44.1689°
True anomaly
344.26838°
Mean anomaly
344.812°
Eccentric anomaly
344.54137°
Mean motion
3.12254 °/min
Orbital period
115.29 mins
BSTAR
0.019592
Loading maneuver chart data...
Computing Atmospheric mass density...

Documentation

Showing up to 5 results
|